Location: Niverville
(49.6028°N, 97.0419°W)
Time: 01:04:47
(UTC-05:00)

Amateur Radio Satellites - All Passes

Search period start: 29 May 2015 00:34
Search period end: 30 May 2015 00:34
Location: Niverville, 49.6028°N, 97.0419°W

Satellite Date Start Highest point End Downlink Frequencies (MHz)
Time Altitude Azimuth
DUCHIFAT 1 29 May 00:34:54 00:39:09 57° 101° (E) 00:43:20 145.980
DANDE 29 May 00:44:16 00:52:24 89° 261° (W) 00:58:47 436.750
SPROUT 29 May 00:44:28 00:48:49 87° 76° (ENE) 00:53:12 437.525
BUGSAT 1 29 May 00:48:24 00:52:38 56° 100° (E) 00:56:49 437.445
ANTELSAT 29 May 00:49:57 00:54:14 49° 290° (WNW) 00:58:24 437.575/2403.000
AISAT 29 May 00:56:49 00:59:17 14° 273° (W) 01:01:34 437.250
TISAT 1 29 May 00:59:29 01:03:45 87° 255° (WSW) 01:08:05 437.305
CUSAT 1 29 May 01:01:54 01:09:07 56° 266° (W) 01:14:42 437.405
BEESAT 3 29 May 01:03:18 01:06:27 21° 30° (NNE) 01:09:38 437.485
ISS 29 May 01:12:07 01:15:23 80° 159° (SSE) 01:18:39 145.825
ITUPSAT 1 29 May 01:16:04 01:20:08 30° 64° (ENE) 01:24:18 437.325
QB50P1 29 May 01:18:38 01:22:49 52° 290° (WNW) 01:26:58 145.935-145.965
POLYITAN 1 29 May 01:21:53 01:26:03 47° 290° (WNW) 01:30:08 437.675
BEESAT 29 May 01:22:10 01:26:24 33° 65° (ENE) 01:30:42 436.000
TIGRISAT 29 May 01:22:11 01:25:55 27° 296° (WNW) 01:29:31 435.000
SWISSCUBE 29 May 01:30:45 01:35:13 42° 67° (ENE) 01:39:43 437.505
O/OREOS (USA 219) 29 May 01:37:51 01:42:21 89° 249° (WSW) 01:46:50 437.305
PCSat 29 May 01:40:48 01:46:11 69° 121° (ESE) 01:51:36 145.827
UNISAT 6 29 May 01:44:09 01:47:09 18° 300° (WNW) 01:50:01 437.425
NANOSAT C BR1 29 May 01:49:33 01:53:15 28° 295° (WNW) 01:56:51 145.865
Cosmos 2499 29 May 01:50:24 01:56:55 38° 67° (ENE) 02:03:30 435.465 / 435.565
STARS 29 May 01:54:18 01:54:38 10° 54° (NE) 01:55:12 437.465
BEESAT 2 29 May 01:54:48 01:58:40 37° 40° (NE) 02:02:30 435.950
GONETS M04 29 May 01:58:22 02:06:45 50° 271° (W) 02:15:00
AIST 2 29 May 01:58:43 02:01:58 21° 29° (NNE) 02:05:13 435.215
QB50P2 29 May 01:59:27 02:02:51 23° 297° (WNW) 02:06:09 145.880/145.840
POPSAT HIP 1 29 May 02:11:27 02:14:29 19° 299° (WNW) 02:17:25 437.405
DUCHIFAT 1 29 May 02:11:33 02:14:35 19° 299° (WNW) 02:17:32 145.980
Oscar 19 29 May 02:12:35 02:16:51 26° 92° (E) 02:21:11 437.125/150
SPROUT 29 May 02:24:00 02:25:38 12° 275° (W) 02:27:03 437.525
BUGSAT 1 29 May 02:24:39 02:27:45 19° 298° (WNW) 02:30:44 437.445
KKS-1 29 May 02:27:53 02:31:42 28° 65° (ENE) 02:35:36 437.445
DANDE 29 May 02:28:51 02:34:25 21° 282° (WNW) 02:39:02 436.750
ITAMSAT 1 29 May 02:32:56 02:35:07 13° 84° (E) 02:37:34 435.822/435.867
VERMONT LUNAR 29 May 02:32:57 02:34:16 12° 164° (SSE) 02:35:36 437.305
TISAT 1 29 May 02:39:23 02:40:18 10° 276° (W) 02:40:59 437.305
BEESAT 3 29 May 02:40:50 02:44:58 83° 233° (SW) 02:49:01 437.485
CUSAT 1 29 May 02:48:11 02:49:55 11° 289° (WNW) 02:51:10 437.405
ISS 29 May 02:48:41 02:51:55 57° 359° (N) 02:55:09 145.825
SO-50 29 May 02:51:57 02:55:18 20° 113° (ESE) 02:58:53 436.795
ITUPSAT 1 29 May 02:53:26 02:57:56 41° 262° (W) 03:02:26 437.325
BEESAT 29 May 02:59:52 03:04:14 35° 264° (W) 03:08:36 436.000
SWISSCUBE 29 May 03:09:08 03:13:14 28° 267° (W) 03:17:18 437.505
O/OREOS (USA 219) 29 May 03:19:29 03:21:07 12° 261° (W) 03:22:31 437.305
Gurwin Techsat 1B 29 May 03:21:56 03:26:40 32° 94° (E) 03:31:26 435.225
PCSat 29 May 03:25:19 03:30:05 30° 323° (NW) 03:34:50 145.827
STARS 29 May 03:25:53 03:30:17 63° 72° (ENE) 03:34:43 437.465
PHONESAT 2.4 29 May 03:28:36 03:29:52 12° 161° (SSE) 03:31:10 2401.200-2431.200
BEESAT 2 29 May 03:32:59 03:36:45 34° 240° (WSW) 03:40:26 435.950
AIST 2 29 May 03:36:51 03:41:08 89° 50° (NE) 03:45:20 435.215
Cosmos 2499 29 May 03:43:33 03:50:16 47° 269° (W) 03:56:59 435.465 / 435.565
Oscar 19 29 May 03:51:30 03:56:31 50° 292° (WNW) 04:01:28 437.125/150
GONETS M04 29 May 03:59:53 04:01:32 10° 293° (WNW) 04:02:32
KKS-1 29 May 04:04:02 04:08:15 38° 263° (W) 04:12:28 437.445
VERMONT LUNAR 29 May 04:08:36 04:10:44 17° 181° (S) 04:12:52 437.305
JAS-2 29 May 04:08:50 04:12:04 17° 87° (E) 04:15:34 435.910
ITAMSAT 1 29 May 04:10:18 04:15:34 81° 103° (ESE) 04:20:49 435.822/435.867
MOZHAYETS 4 29 May 04:13:04 04:16:59 29° 65° (ENE) 04:20:57
BEESAT 3 29 May 04:20:58 04:22:18 11° 249° (WSW) 04:23:27 437.485
ISS 29 May 04:25:12 04:28:28 85° 201° (SSW) 04:31:45 145.825
SO-50 29 May 04:30:37 04:35:23 73° 312° (NW) 04:40:18 436.795
HORYU 2 29 May 04:43:58 04:47:55 31° 95° (E) 04:51:54 437.375
AO-7 29 May 04:58:42 05:06:25 40° 96° (E) 05:14:12 29.400- 29.500
Gurwin Techsat 1B 29 May 05:01:46 05:06:47 43° 294° (WNW) 05:11:46 435.225
STARS 29 May 05:04:12 05:07:12 17° 271° (W) 05:10:03 437.465
PHONESAT 2.4 29 May 05:04:44 05:07:13 18° 178° (S) 05:09:42 2401.200-2431.200
PCSat 29 May 05:12:37 05:15:20 14° 348° (NNW) 05:17:59 145.827
AIST 2 29 May 05:17:02 05:19:07 13° 249° (WSW) 05:21:02 435.215
VERMONT LUNAR 29 May 05:46:13 05:47:10 11° 197° (SSW) 05:48:06 437.305
Cosmos 2491 29 May 05:46:33 05:54:24 35° 62° (ENE) 06:02:19 435.465 / 435.565
MOZHAYETS 4 29 May 05:49:51 05:54:07 38° 263° (W) 05:58:23
ITAMSAT 1 29 May 05:50:52 05:54:31 19° 303° (WNW) 05:58:03 435.822/435.867
JAS-2 29 May 05:52:45 05:57:57 73° 288° (WNW) 06:03:14 435.910
CUBESAT XI-V 29 May 05:58:14 06:02:13 30° 65° (ENE) 06:06:17 437.345
ISS 29 May 06:02:00 06:04:35 21° 217° (SW) 06:07:07 145.825
SO-50 29 May 06:12:56 06:16:45 22° 335° (NNW) 06:20:35 436.795
HORYU 2 29 May 06:20:35 06:24:36 33° 294° (WNW) 06:28:31 437.375
PRISM 29 May 06:20:47 06:23:59 23° 63° (ENE) 06:27:16 437.425
M-CUBED/EXP-1 PRIME 29 May 06:32:36 06:35:39 22° 60° (ENE) 06:38:35 437.505
STRAND 1 29 May 06:35:53 06:40:25 34° 64° (ENE) 06:45:03 437.568
AUBIESAT-1 29 May 06:38:28 06:41:29 22° 59° (ENE) 06:44:24 437.475
CUTE-I 29 May 06:41:13 06:44:46 18° 87° (E) 06:48:28 437.470
PHONESAT 2.4 29 May 06:42:38 06:44:37 14° 194° (SSW) 06:46:32 2401.200-2431.200
YUBILEINY 29 May 06:44:35 06:51:07 25° 79° (E) 06:57:54 435.215
AIST 1 29 May 06:46:52 06:49:13 14° 61° (ENE) 06:51:45
AO-7 29 May 06:51:26 06:59:38 59° 298° (WNW) 07:07:45 29.400- 29.500
PCSat 29 May 06:58:15 07:01:06 14° 14° (NNE) 07:04:00 145.827
Cubesat XI-IV 29 May 07:01:59 07:06:27 27° 92° (E) 07:11:00 437.490
CUBESAT XI-V 29 May 07:35:17 07:39:35 37° 264° (W) 07:43:54 437.345
JAS-2 29 May 07:39:53 07:42:18 13° 308° (NW) 07:44:30 435.910
Cosmos 2491 29 May 07:43:16 07:52:02 67° 266° (W) 08:00:42 435.465 / 435.565
PRISM 29 May 07:55:22 07:59:15 41° 262° (W) 08:03:09 437.425
SO-50 29 May 07:56:24 07:59:02 14° 359° (N) 08:01:41 436.795
BRITE-PL 29 May 07:59:45 08:01:47 12° 80° (E) 08:04:07 437.365/2234.400
M-CUBED/EXP-1 PRIME 29 May 08:06:29 08:10:22 42° 255° (WSW) 08:13:58 437.505
AUBIESAT-1 29 May 08:12:18 08:16:07 41° 255° (WSW) 08:19:41 437.475
STRAND 1 29 May 08:14:51 08:19:36 39° 263° (W) 08:24:23 437.568
CUTE-I 29 May 08:20:08 08:25:31 77° 288° (WNW) 08:30:54 437.470
AIST 1 29 May 08:23:07 08:27:30 75° 263° (W) 08:31:54
RS-15 29 May 08:34:28 08:43:35 34° 108° (ESE) 08:53:12 29.354- 29.394
YUBILEINY 29 May 08:38:14 08:47:02 84° 281° (W) 08:55:50 435.215
DOVE 4 29 May 08:40:02 08:40:18 10° 79° (E) 08:40:54 437.250
PCSat 29 May 08:41:21 08:46:14 33° 39° (NE) 08:51:09 145.827
Cubesat XI-IV 29 May 08:41:39 08:46:53 53° 292° (WNW) 08:52:05 437.490
HO-68 29 May 08:41:59 08:46:01 16° 83° (E) 08:50:24 435.675
AO-7 29 May 08:45:20 08:50:55 20° 321° (NW) 08:56:15 29.400- 29.500
GOMX 1 29 May 09:25:42 09:30:45 40° 94° (E) 09:35:35 467.674
CINEMA 3 29 May 09:34:36 09:37:23 16° 86° (E) 09:40:16 145.822/145.860
UNISAT 6 29 May 09:35:01 09:37:36 15° 58° (ENE) 09:40:19 437.425
BRITE-PL 29 May 09:35:47 09:41:29 71° 101° (E) 09:46:55 437.365/2234.400
SO-50 29 May 09:37:37 09:41:21 21° 23° (NNE) 09:45:07 436.795
Cosmos 2491 29 May 09:42:21 09:47:19 16° 288° (WNW) 09:51:48 435.465 / 435.565
CANX-2 29 May 09:44:38 09:48:32 36° 96° (E) 09:52:27 2200.000
CUTE 1.7 + AOD 2 29 May 09:47:48 09:51:41 35° 96° (E) 09:55:34 437.475
DUCHIFAT 1 29 May 09:59:07 10:00:19 11° 56° (NE) 10:01:43 145.980
POPSAT HIP 1 29 May 09:59:09 10:00:31 12° 56° (NE) 10:02:04 437.405
CUTE-I 29 May 10:01:44 10:04:51 15° 306° (NW) 10:07:47 437.470
Oscar 11 29 May 10:05:56 10:08:39 17° 88° (E) 10:11:31 145.826/435.025
SEEDS 29 May 10:06:16 10:10:18 45° 98° (E) 10:14:20 437.485
CUBEBUG 2 29 May 10:08:56 10:11:47 17° 87° (E) 10:14:40 437.445
Cosmos 2504 29 May 10:10:20 10:18:00 48° 90° (E) 10:25:15 435.465 / 435.565
BUGSAT 1 29 May 10:11:16 10:11:47 10° 55° (NE) 10:12:31 437.445
DOVE 4 29 May 10:14:05 10:19:15 69° 101° (E) 10:24:06 437.250
COMPASS 1 29 May 10:15:22 10:19:22 45° 98° (E) 10:23:22 437.405
ANTELSAT 29 May 10:16:35 10:20:43 33° 66° (ENE) 10:24:50 437.575/2403.000
Cubesat XI-IV 29 May 10:24:28 10:25:56 11° 311° (NW) 10:27:10 437.490
PCSat 29 May 10:24:39 10:30:00 59° 241° (WSW) 10:35:19 145.827
AAUSAT CUBESAT 2 29 May 10:25:15 10:29:18 50° 99° (E) 10:33:20 437.432
HO-68 29 May 10:27:56 10:35:09 76° 105° (ESE) 10:42:18 435.675
DELFI C3 29 May 10:35:40 10:38:52 23° 92° (E) 10:42:07 145.870
YUBILEINY 29 May 10:38:39 10:45:28 23° 306° (NW) 10:52:01 435.215
QB50P1 29 May 10:40:21 10:43:53 26° 65° (ENE) 10:47:29 145.935-145.965
POLYITAN 1 29 May 10:43:40 10:47:20 28° 65° (ENE) 10:51:04 437.675
RS-15 29 May 10:43:59 10:54:57 82° 312° (NW) 11:06:22 29.354- 29.394
TIGRISAT 29 May 10:47:37 10:52:12 59° 72° (ENE) 10:56:45 435.000
UWE-3 29 May 10:50:03 10:54:02 33° 95° (E) 10:57:56 435.000/436.395/437.385
FUNcube-1 29 May 10:53:12 10:56:55 28° 93° (E) 11:00:35 145.935
GOMX 1 29 May 11:03:55 11:08:50 35° 295° (WNW) 11:13:28 467.674
AISAT 29 May 11:06:25 11:07:33 11° 84° (E) 11:08:56 437.250
HUMSAT D 29 May 11:07:59 11:10:58 19° 90° (E) 11:14:01 437.325/437.525
UNISAT 6 29 May 11:09:08 11:13:50 86° 256° (WSW) 11:18:28 437.425
NANOSAT C BR1 29 May 11:10:00 11:14:07 47° 70° (ENE) 11:18:16 145.865
CINEMA 3 29 May 11:10:28 11:15:15 71° 286° (WNW) 11:19:45 145.822/145.860
BRITE-PL 29 May 11:15:01 11:19:28 24° 301° (WNW) 11:23:41 437.365/2234.400
SO-50 29 May 11:17:52 11:22:50 64° 45° (NE) 11:27:44 436.795
QB50P2 29 May 11:19:52 11:24:07 61° 72° (ENE) 11:28:23 145.880/145.840
CANX-2 29 May 11:20:47 11:24:23 27° 294° (WNW) 11:27:53 2200.000
CUTE 1.7 + AOD 2 29 May 11:23:55 11:27:30 27° 294° (WNW) 11:31:02 437.475
50 SAT 29 May 11:27:59 11:30:31 17° 90° (E) 11:33:08 437.505
UKube-1 29 May 11:31:02 11:34:54 30° 95° (E) 11:38:46 .
DUCHIFAT 1 29 May 11:31:10 11:35:26 75° 74° (ENE) 11:39:45 145.980
POPSAT HIP 1 29 May 11:31:25 11:35:42 77° 74° (ENE) 11:40:02 437.405
ZACube-1 29 May 11:34:32 11:38:54 73° 102° (ESE) 11:43:07 437.345
Oscar 11 29 May 11:41:01 11:45:17 59° 288° (WNW) 11:49:31 145.826/435.025
BUGSAT 1 29 May 11:42:21 11:46:30 69° 74° (ENE) 11:50:45 437.445
SEEDS 29 May 11:42:37 11:45:52 22° 296° (WNW) 11:49:03 437.485
DX 1 29 May 11:43:31 11:47:43 43° 98° (E) 11:51:55 434.975-435.025
CUBEBUG 2 29 May 11:44:32 11:48:59 61° 288° (WNW) 11:53:14 437.445
COMPASS 1 29 May 11:51:36 11:54:49 21° 296° (WNW) 11:57:56 437.405
DOVE 4 29 May 11:52:40 11:56:29 21° 301° (WNW) 12:00:04 437.250
ANTELSAT 29 May 11:53:10 11:57:28 35° 264° (W) 12:01:41 437.575/2403.000
Oscar 19 29 May 11:58:32 12:00:06 12° 51° (NE) 12:01:53 437.125/150
CUBEBUG 1 29 May 11:59:05 12:02:16 19° 90° (E) 12:05:34 437.445
AAUSAT CUBESAT 2 29 May 12:01:34 12:04:37 20° 297° (WNW) 12:07:35 437.432
Cosmos 2504 29 May 12:03:49 12:11:31 43° 291° (WNW) 12:18:41 435.465 / 435.565
VELOX 1 29 May 12:07:54 12:12:10 40° 98° (E) 12:16:24 145.980
DELFI C3 29 May 12:10:23 12:14:07 37° 291° (WNW) 12:17:50 145.870
QB50P1 29 May 12:15:33 12:19:36 39° 263° (W) 12:23:40 145.935-145.965
HO-68 29 May 12:16:21 12:22:21 29° 306° (NW) 12:28:11 435.675
DANDE 29 May 12:16:49 12:22:23 22° 79° (E) 12:28:36 436.750
POLYITAN 1 29 May 12:19:09 12:23:09 36° 264° (W) 12:27:09 437.675
ESTCUBE 1 29 May 12:21:14 12:25:24 35° 96° (E) 12:29:35 437.505/2401.250
TIGRISAT 29 May 12:25:56 12:29:21 19° 270° (W) 12:32:36 435.000
UWE-3 29 May 12:26:39 12:30:32 30° 294° (WNW) 12:34:17 435.000/436.395/437.385
CUSAT 1 29 May 12:28:41 12:35:20 32° 85° (E) 12:42:30 437.405
SPROUT 29 May 12:28:54 12:30:23 12° 85° (E) 12:32:05 437.525
FUNcube-1 29 May 12:29:21 12:33:19 35° 293° (WNW) 12:37:09 145.935
AISAT 29 May 12:40:24 12:44:57 85° 105° (ESE) 12:49:26 437.250
TISAT 1 29 May 12:41:54 12:43:11 11° 85° (E) 12:44:40 437.305
HUMSAT D 29 May 12:42:59 12:47:01 47° 290° (WNW) 12:50:59 437.325/437.525
NANOSAT C BR1 29 May 12:46:55 12:50:14 21° 269° (W) 12:53:27 145.865
UNISAT 6 29 May 12:49:31 12:51:22 12° 275° (W) 12:52:59 437.425
CINEMA 3 29 May 12:49:42 12:51:35 12° 306° (NW) 12:53:15 145.822/145.860
QB50P2 29 May 12:57:38 13:00:28 16° 272° (W) 13:03:09 145.880/145.840
RS-15 29 May 12:58:47 13:09:09 42° 342° (NNW) 13:19:54 29.354- 29.394
SO-50 29 May 12:59:00 13:03:03 25° 245° (WSW) 13:06:58 436.795
50 SAT 29 May 13:01:46 13:05:32 48° 289° (WNW) 13:09:15 437.505
UKube-1 29 May 13:07:07 13:11:03 33° 294° (WNW) 13:14:57 .
GONETS M04 29 May 13:08:00 13:16:06 44° 87° (E) 13:24:19
DUCHIFAT 1 29 May 13:09:38 13:11:51 13° 274° (W) 13:13:53 145.980
POPSAT HIP 1 29 May 13:10:03 13:12:12 13° 274° (W) 13:14:09 437.405
Gurwin Techsat 1B 29 May 13:10:31 13:13:19 15° 54° (NE) 13:16:18 435.225
ZACube-1 29 May 13:12:05 13:14:44 16° 301° (WNW) 13:17:15 437.345
DX 1 29 May 13:20:09 13:23:47 25° 297° (WNW) 13:27:21 434.975-435.025
BUGSAT 1 29 May 13:20:13 13:22:32 14° 273° (W) 13:24:43 437.445
Oscar 19 29 May 13:33:25 13:38:30 58° 70° (ENE) 13:43:38 437.125/150
CUBEBUG 1 29 May 13:34:37 13:38:59 54° 289° (WNW) 13:43:20 437.445
VELOX 1 29 May 13:44:45 13:48:34 27° 296° (WNW) 13:52:19 145.980
ITAMSAT 1 29 May 13:54:14 13:58:43 31° 63° (ENE) 14:03:18 435.822/435.867
DANDE 29 May 13:56:45 14:04:28 83° 100° (E) 14:13:09 436.750
ESTCUBE 1 29 May 13:58:12 14:02:14 31° 294° (WNW) 14:06:12 437.505/2401.250
SPROUT 29 May 14:02:48 14:07:11 86° 286° (WNW) 14:11:31 437.525
Cosmos 2504 29 May 14:06:02 14:07:27 10° 317° (NW) 14:08:24 435.465 / 435.565
CUSAT 1 29 May 14:09:37 14:17:30 73° 286° (WNW) 14:25:51 437.405
AO-7 29 May 14:12:42 14:18:47 24° 44° (NE) 14:25:05 29.400- 29.500
TISAT 1 29 May 14:15:21 14:19:40 87° 286° (WNW) 14:23:56 437.305
AISAT 29 May 14:18:21 14:20:57 15° 302° (WNW) 14:23:25 437.250
JAS-2 29 May 14:26:52 14:30:24 17° 55° (NE) 14:33:55 435.910
Cosmos 2499 29 May 14:33:08 14:39:22 28° 84° (E) 14:45:28 435.465 / 435.565
Gurwin Techsat 1B 29 May 14:47:13 14:52:31 76° 73° (ENE) 14:57:52 435.225
ITUPSAT 1 29 May 14:49:19 14:53:46 37° 96° (E) 14:58:14 437.325
BEESAT 29 May 14:55:09 14:59:41 42° 98° (E) 15:04:15 436.000
SWISSCUBE 29 May 15:04:02 15:08:45 55° 101° (E) 15:13:27 437.505
GONETS M04 29 May 15:04:16 15:12:53 52° 289° (WNW) 15:21:30
Oscar 19 29 May 15:14:07 15:18:16 23° 269° (W) 15:22:20 437.125/150
RS-15 29 May 15:14:28 15:24:56 41° 15° (NNE) 15:35:55 29.354- 29.394
ITAMSAT 1 29 May 15:33:10 15:38:07 44° 262° (W) 15:43:05 435.822/435.867
SPROUT 29 May 15:40:38 15:42:38 13° 303° (WNW) 15:44:29 437.525
DANDE 29 May 15:41:49 15:48:48 31° 303° (WNW) 15:56:06 436.750
HORYU 2 29 May 15:46:10 15:50:29 50° 70° (ENE) 15:54:51 437.375
KKS-1 29 May 15:50:40 15:54:36 30° 94° (E) 15:58:34 437.445
TISAT 1 29 May 15:52:52 15:54:49 13° 303° (WNW) 15:56:37 437.305
O/OREOS (USA 219) 29 May 15:54:22 15:58:39 45° 110° (ESE) 16:02:58 437.305
CUSAT 1 29 May 15:55:37 16:01:48 22° 309° (NW) 16:07:50 437.405
AO-7 29 May 16:02:11 16:10:27 75° 66° (ENE) 16:18:47 29.400- 29.500
JAS-2 29 May 16:08:32 16:14:55 79° 73° (ENE) 16:20:36 435.910
Cosmos 2499 29 May 16:24:06 16:32:02 70° 283° (WNW) 16:39:25 435.465 / 435.565
ITUPSAT 1 29 May 16:27:20 16:31:37 32° 295° (WNW) 16:35:51 437.325
Gurwin Techsat 1B 29 May 16:29:30 16:33:11 18° 273° (W) 16:36:41 435.225
BEESAT 29 May 16:33:18 16:37:25 29° 296° (WNW) 16:41:28 436.000
SWISSCUBE 29 May 16:42:31 16:46:18 23° 299° (WNW) 16:50:00 437.505
YUBILEINY 29 May 16:47:21 16:52:32 17° 47° (NE) 16:58:06 435.215
STARS 29 May 16:47:34 16:52:00 68° 102° (ESE) 16:56:24 437.465
Cubesat XI-IV 29 May 16:51:56 16:54:13 13° 51° (NE) 16:56:42 437.490
GONETS M04 29 May 17:07:46 17:12:30 15° 317° (NW) 17:16:50
HORYU 2 29 May 17:23:59 17:27:27 21° 269° (W) 17:30:48 437.375
KKS-1 29 May 17:27:11 17:31:18 35° 294° (WNW) 17:35:22 437.445
RS-15 29 May 17:27:56 17:39:28 76° 45° (NE) 17:51:33 29.354- 29.394
BEESAT 2 29 May 17:31:51 17:34:09 15° 113° (ESE) 17:36:35 435.950
O/OREOS (USA 219) 29 May 17:34:24 17:38:17 27° 310° (NW) 17:42:07 437.305
MOZHAYETS 4 29 May 17:40:13 17:44:27 36° 96° (E) 17:48:42
JAS-2 29 May 17:56:09 18:00:39 19° 271° (W) 18:04:40 435.910
AO-7 29 May 17:57:00 18:04:07 30° 269° (W) 18:11:05 29.400- 29.500
CUTE-I 29 May 18:06:57 18:11:57 44° 67° (ENE) 18:17:02 437.470
BEESAT 3 29 May 18:15:00 18:18:53 43° 122° (ESE) 18:22:49 437.485
Cosmos 2499 29 May 18:21:54 18:26:46 17° 307° (NW) 18:31:11 435.465 / 435.565
STARS 29 May 18:25:01 18:28:01 18° 301° (WNW) 18:30:53 437.465
Cubesat XI-IV 29 May 18:28:11 18:33:26 65° 71° (ENE) 18:38:45 437.490
YUBILEINY 29 May 18:43:02 18:51:41 63° 74° (ENE) 19:00:18 435.215
Cosmos 2491 29 May 18:54:16 19:01:37 32° 82° (E) 19:09:12 435.465 / 435.565
GOMX 1 29 May 19:02:55 19:05:20 13° 53° (NE) 19:07:59 467.674
BEESAT 2 29 May 19:07:36 19:11:44 79° 310° (NW) 19:15:55 435.950
BRITE-PL 29 May 19:13:38 19:17:40 22° 59° (ENE) 19:21:58 437.365/2234.400
HO-68 29 May 19:15:34 19:20:51 23° 50° (NE) 19:26:18 435.675
AIST 2 29 May 19:16:45 19:20:49 45° 122° (ESE) 19:24:56 435.215
MOZHAYETS 4 29 May 19:17:36 19:21:37 30° 295° (WNW) 19:25:35
CUBESAT XI-V 29 May 19:27:07 19:31:34 40° 97° (E) 19:36:00 437.345
PRISM 29 May 19:33:41 19:36:43 20° 92° (E) 19:39:50 437.425
RS-15 29 May 19:40:48 19:51:22 42° 249° (WSW) 20:02:06 29.354- 29.394
CUTE-I 29 May 19:47:28 19:52:13 31° 266° (W) 19:56:56 437.470
DOVE 4 29 May 19:47:29 19:51:09 20° 59° (ENE) 19:55:00 437.250
BEESAT 3 29 May 19:53:16 19:56:59 31° 322° (NW) 20:00:42 437.485
Cosmos 2504 29 May 19:57:31 20:02:44 21° 56° (ENE) 20:08:07 435.465 / 435.565
Cubesat XI-IV 29 May 20:09:59 20:14:04 21° 271° (W) 20:18:02 437.490
STRAND 1 29 May 20:20:22 20:25:23 51° 99° (E) 20:30:26 437.568
GOMX 1 29 May 20:37:14 20:42:28 64° 72° (ENE) 20:47:57 467.674
CINEMA 3 29 May 20:39:39 20:43:48 27° 64° (ENE) 20:48:01 145.822/145.860
YUBILEINY 29 May 20:40:27 20:48:06 35° 276° (W) 20:55:36 435.215
CANX-2 29 May 20:41:35 20:45:39 45° 70° (ENE) 20:49:44 2200.000
CUTE 1.7 + AOD 2 29 May 20:44:40 20:48:43 44° 70° (ENE) 20:52:47 437.475
BEESAT 2 29 May 20:47:28 20:50:29 19° 332° (NNW) 20:53:28 435.950
Cosmos 2491 29 May 20:49:08 20:57:56 69° 285° (WNW) 21:06:48 435.465 / 435.565
BRITE-PL 29 May 20:50:19 20:55:36 73° 258° (WSW) 21:01:16 437.365/2234.400
AIST 2 29 May 20:55:38 20:59:32 32° 322° (NW) 21:03:26 435.215
AIST 1 29 May 20:56:57 21:01:04 50° 95° (E) 21:05:16
ZACube-1 29 May 21:00:26 21:02:59 15° 59° (ENE) 21:05:38 437.345
HO-68 29 May 21:00:34 21:07:46 85° 71° (ENE) 21:15:00 435.675
SEEDS 29 May 21:02:18 21:06:25 55° 72° (ENE) 21:10:34 437.485
Oscar 11 29 May 21:04:47 21:08:10 23° 64° (ENE) 21:11:39 145.826/435.025
CUBESAT XI-V 29 May 21:04:48 21:08:53 29° 295° (WNW) 21:12:55 437.345
PRISM 29 May 21:08:25 21:12:26 47° 290° (WNW) 21:16:27 437.425
COMPASS 1 29 May 21:10:34 21:14:39 55° 72° (ENE) 21:18:45 437.405
CUBEBUG 2 29 May 21:10:44 21:14:40 27° 64° (ENE) 21:18:39 437.445
DX 1 29 May 21:11:23 21:11:56 10° 54° (NE) 21:12:41 434.975-435.025
M-CUBED/EXP-1 PRIME 29 May 21:17:55 21:21:14 65° 108° (ESE) 21:24:32 437.505
AAUSAT CUBESAT 2 29 May 21:20:00 21:24:06 60° 73° (ENE) 21:28:12 437.432
AUBIESAT-1 29 May 21:23:05 21:26:23 65° 108° (ESE) 21:29:42 437.475
DOVE 4 29 May 21:23:05 21:28:20 79° 257° (WSW) 21:33:43 437.250
DELFI C3 29 May 21:27:14 21:30:35 26° 66° (ENE) 21:34:00 145.870
BEESAT 3 29 May 21:34:33 21:36:12 12° 345° (NNW) 21:37:47 437.485
VELOX 1 29 May 21:38:09 21:38:10 10° 53° (NE) 21:38:23 145.980
Cosmos 2504 29 May 21:50:03 21:57:19 89° 262° (W) 22:04:32 435.465 / 435.565
UWE-3 29 May 21:50:49 21:55:19 48° 70° (ENE) 21:59:47 435.000/436.395/437.385
FUNcube-1 29 May 21:52:39 21:56:55 40° 68° (ENE) 22:01:09 145.935
STRAND 1 29 May 22:00:02 22:04:22 27° 298° (WNW) 22:08:38 437.568
HUMSAT D 29 May 22:03:44 22:07:16 26° 65° (ENE) 22:10:51 437.325/437.525
AISAT 29 May 22:07:31 22:10:34 19° 60° (ENE) 22:13:45 437.250
CINEMA 3 29 May 22:15:51 22:20:45 50° 262° (W) 22:25:39 145.822/145.860
50 SAT 29 May 22:16:50 22:19:43 20° 64° (ENE) 22:22:40 437.505
GOMX 1 29 May 22:16:54 22:21:05 23° 272° (W) 22:25:17 467.674
CANX-2 29 May 22:18:31 22:21:50 21° 269° (W) 22:25:03 2200.000
CUTE 1.7 + AOD 2 29 May 22:21:32 22:24:53 21° 269° (W) 22:28:07 437.475
UKube-1 29 May 22:29:51 22:33:58 45° 69° (ENE) 22:38:09 .
BRITE-PL 29 May 22:33:00 22:35:18 12° 280° (W) 22:37:21 437.365/2234.400
ZACube-1 29 May 22:34:11 22:38:47 85° 256° (WSW) 22:43:22 437.345
AIST 1 29 May 22:35:55 22:39:04 19° 295° (WNW) 22:42:11
AIST 2 29 May 22:37:25 22:39:22 13° 345° (NNW) 22:41:17 435.215
SEEDS 29 May 22:39:44 22:42:37 17° 271° (W) 22:45:22 437.485
Oscar 11 29 May 22:39:59 22:44:09 44° 262° (W) 22:48:19 145.826/435.025
DX 1 29 May 22:43:05 22:47:24 65° 72° (ENE) 22:51:46 434.975-435.025
ISS 29 May 22:45:06 22:46:17 12° 137° (SE) 22:47:34 145.825
CUBEBUG 2 29 May 22:46:35 22:51:11 45° 262° (W) 22:55:44 437.445
COMPASS 1 29 May 22:47:53 22:50:43 17° 271° (W) 22:53:25 437.405
Cosmos 2491 29 May 22:50:47 22:56:55 19° 311° (NW) 23:02:44 435.465 / 435.565
HO-68 29 May 22:50:59 22:56:28 22° 272° (W) 23:01:45 435.675
DANDE 29 May 22:52:35 22:58:45 24° 52° (NE) 23:04:14 436.750
M-CUBED/EXP-1 PRIME 29 May 22:54:22 22:55:43 12° 306° (NW) 22:56:57 437.505
AAUSAT CUBESAT 2 29 May 22:57:31 23:00:09 16° 272° (W) 23:02:38 437.432
UNISAT 6 29 May 22:58:23 23:00:40 14° 86° (E) 23:03:06 437.425
CUBEBUG 1 29 May 22:59:17 23:02:59 28° 65° (ENE) 23:06:47 437.445
AUBIESAT-1 29 May 22:59:26 23:00:48 12° 306° (NW) 23:02:04 437.475
DELFI C3 29 May 23:01:56 23:05:37 33° 264° (W) 23:09:17 145.870
CUSAT 1 29 May 23:02:46 23:09:04 30° 57° (ENE) 23:14:21 437.405
DOVE 4 29 May 23:04:31 23:07:03 13° 278° (W) 23:09:20 437.250
VELOX 1 29 May 23:09:30 23:13:53 62° 72° (ENE) 23:18:19 145.980
GONETS M04 29 May 23:12:18 23:19:34 28° 58° (ENE) 23:26:58
BEESAT 3 29 May 23:15:16 23:15:56 10° 9° (N) 23:16:38 437.485
ESTCUBE 1 29 May 23:24:56 23:29:18 54° 71° (ENE) 23:33:43 437.505/2401.250
SPROUT 29 May 23:26:49 23:29:38 18° 61° (ENE) 23:32:34 437.525
UWE-3 29 May 23:28:16 23:32:05 24° 269° (W) 23:35:47 435.000/436.395/437.385
FUNcube-1 29 May 23:29:24 23:33:21 27° 267° (W) 23:37:13 145.935
TISAT 1 29 May 23:37:42 23:40:23 17° 60° (ENE) 23:43:11 437.305
HUMSAT D 29 May 23:38:48 23:42:51 39° 263° (W) 23:46:54 437.325/437.525
ANTELSAT 29 May 23:40:37 23:44:40 35° 96° (E) 23:48:38 437.575/2403.000
AISAT 29 May 23:42:18 23:46:45 64° 259° (WSW) 23:51:14 437.250
Cosmos 2504 29 May 23:44:59 23:49:43 18° 282° (WNW) 23:54:09 435.465 / 435.565
50 SAT 29 May 23:50:18 23:54:10 46° 261° (W) 23:58:01 437.505
QB50P1 29 May 23:56:28 00:00:00 25° 93° (E) 00:03:34 145.935-145.965
POLYITAN 1 30 May 00:00:12 00:03:52 27° 94° (E) 00:07:33 437.675
UKube-1 30 May 00:06:55 00:10:21 22° 268° (W) 00:13:43 .
BEESAT 2 30 May 00:07:51 00:09:57 14° 19° (NNE) 00:12:06 435.950
TIGRISAT 30 May 00:11:45 00:16:08 70° 102° (ESE) 00:20:25 435.000
ZACube-1 30 May 00:14:20 00:15:55 11° 276° (W) 00:17:16 437.345
AIST 2 30 May 00:18:25 00:19:44 11° 9° (N) 00:21:05 435.215
Cosmos 2499 30 May 00:18:53 00:21:21 12° 47° (NE) 00:24:10 435.465 / 435.565
ISS 30 May 00:18:59 00:22:09 54° 154° (SSE) 00:25:22 145.825
O/OREOS (USA 219) 30 May 00:20:52 00:24:43 28° 50° (NE) 00:28:37 437.305
DX 1 30 May 00:21:23 00:24:09 16° 271° (W) 00:26:47 434.975-435.025
ITUPSAT 1 30 May 00:26:09 00:27:53 12° 54° (NE) 00:29:48 437.325
NANOSAT C BR1 30 May 00:26:12 00:30:22 47° 99° (E) 00:34:29 145.865
